C/2017 M4 ( ATLAS )

Japanese version
Home page
Updated on August 25, 2017

---------------------------------------------------------------------

* Profile

Discovery Date June 21, 2017
Magnitude 18.3 mag
Discoverer Asteroid Terrestrial-impact Last Alert System (ATLAS) Team

* Pictures

* Orbital Elements

Epoch 2019 Feb. 6.0 TT = JDT 2458520.5
T 2019 Jan. 18.12202 TT                                 MPCW
q   3.2514697            (2000.0)            P               Q
z  -0.0007822      Peri.  167.62230     -0.34652267     -0.32821558
 +/-0.0000387      Node    65.86910     -0.92164558     +0.29351200
e   1.0025434      Incl.  105.65786     -0.17461804     -0.89784478
From 286 observations 2017 June 16-Aug. 19, mean residual 0".4.

* Finding Charts

* Magnitudes Graph

        m1 = 6.0 + 5 log d + 10.0 log r

---------------------------------------------------------------------

The orbital elements are published on M.P.E.C. 2017-Q101.
The charts are made with StellaNavigator Ver.10 (AstroArts).
The magnitudes graphs are made with Comet for Windows.

---------------------------------------------------------------------

Copyright(C) Seiichi Yoshida (comet@aerith.net). All rights reserved.